Regional Weather Roundup
Issued by NWS Cleveland, OH

Home | Current Version | Previous Version | Graphics & Text | Print | Product List | Glossary On
Versions: 1 2 3 4 5 6 7 8 9 10 11 12 13 14 15 16 17 18 19 20 21 22 23 24 25 26 27 28 29 30 31 32 33 34 35 36 37 38 39 40 41 42 43 44 45 46 47 48 49 50
000
ASUS41 KCLE 280602
RWRCLE
OHIO REGIONAL WEATHER ROUNDUP
NATIONAL WEATHER SERVICE CLEVELAND, OH
200 AM EDT FRI JUL 28 2017

NOTE: "FAIR" INDICATES FEW OR NO CLOUDS BELOW 12,000 FEET WITH NO
SIGNIFICANT WEATHER AND/OR OBSTRUCTIONS TO VISIBILITY.

OHZ001>008-015>018-024>027-034-035-043-044-280700-
   NORTHWEST OHIO

CITY           SKY/WX    TMP DP  RH WIND       PRES   REMARKS
DEFIANCE       PTCLDY    70  64  81 NE8       29.91S
FINDLAY        PTCLDY    71  64  78 NE10      29.89S
TOLEDO EXPRESS PTCLDY    68  61  78 NE7       29.91S
TOLEDO EXEC    PTCLDY    70  63  78 NE7       29.92S
LIMA           MOCLDY    68  68 100 NE3       29.90R
$$

OHZ009>014-019>023-028>033-038-089-280700-
   NORTHEAST OHIO

CITY           SKY/WX    TMP DP  RH WIND       PRES   REMARKS
CLE-HOPKINS    MOCLDY    73  68  84 N9        29.90F
CLE-LAKEFRONT  MOCLDY    73  66  78 N9        29.88S
CUY CO. ARPT   NOT AVBL
LORAIN-ELYRIA  PTCLDY    66  62  87 NE3       29.90F FOG
ASHTABULA      PTCLDY    64  64 100 CALM      29.91R
AKRON-CANTON   CLOUDY    70  67  90 N6        29.89F FOG
WOOSTER        PTCLDY    66  65  96 N7        29.89F
MANSFIELD      PTCLDY    66  66 100 N7        29.90S
YOUNGSTOWN     MOCLDY    67  64  90 NE7       29.89F
$$

OHZ042-051>053-060>062-070>072-077>081-280700-
  SOUTHWEST OHIO

CITY           SKY/WX    TMP DP  RH WIND       PRES   REMARKS
CINC-COVINGTON CLOUDY    75  74  96 CALM      29.86F
CINC-LUNKEN    CLOUDY    73  73 100 CALM      29.86F
HAMILTON       CLOUDY    74  74 100 CALM      29.86F
DAYTON         PTCLDY    70  69  97 NE6       29.89S
WRIGHT-PAT AFB NOT AVBL
DAYTON GENERAL CLOUDY    73  72  96 NE5       29.87R
WILMINGTON     CLOUDY    70  70 100 N3        29.87S FOG
$$

OHZ036-037-039>041-045>050-054>059-063>069-073>076-082>088-280700-
  CENTRAL AND SOUTHEAST OHIO

CITY           SKY/WX    TMP DP  RH WIND       PRES   REMARKS
COLUMBUS       CLOUDY    70  70 100 NE6       29.86S
OSU AIRPORT    CLEAR     68  68 100 N5        29.87S
BOLTON FIELD   MOCLDY    68  68 100 N3        29.87S FOG
RICKENBACK AFB CLOUDY    70  70 100 NE6       29.85F
NEWARK         CLOUDY    71  69  93 VRB3      29.86F
MARION         FOG       69  67  93 N7        29.89F VSB 1/4
LANCASTER      CLOUDY    70  70 100 NE7       29.86S FOG
ZANESVILLE     CLOUDY    71  69  93 NE5       29.87S
NEW PHILLY     NOT AVBL
$$




USA.gov is the U.S. government's official web portal to all federal, state and local government web resources and services.